sat.trackr.live / text

‹ back to catalog

STARLINK-5212

NORAD 54075 · 2022-136AA

PAYLOAD ACTIVE UNKNOWN

§ Identity

Operator
Country
US
Launch date
2022-10-20
Launch site
AFETR
Launch vehicle
Mass (kg)
RCS (m²)

Purposes: comms

External: N2YO · Heavens-Above · Gunter

§ Orbital elements

Epoch: 2026-09-20T03:40:14.336544Z

Period
94.01 min
Inclination
53.1601°
Eccentricity
0.0001328
Mean motion
15.31718989 rev/d
Perigee alt
469.8 km
Apogee alt
471.6 km
Semi-major
6,848.8 km
B*
-1.2719e-4
RAAN
170.6161°
Arg perigee
122.2048°
Mean anomaly
237.9082°
Rev number
21,648

§ Raw data

STARLINK-52121 54075U 22136AA  26263.15294371 -.00004312  00000+0 -12719-3 0  99902 54075  53.1601 170.6161 0001328 122.2048 237.9082 15.31718989216488

JSON: /api/v1/satellites/54075 · /tle

For live sub-satellite position, see the globe view (requires WebGL).

§ Visibility from observer

Set your observer location to see the next 7 days of passes ≥ 10°. The values pass through the URL so the page stays shareable.

No JS? Fill the form by hand. The geolocation button needs JavaScript.